Weather in Cartagena

Colombia     10°23′36″N   75°28′56″W
temp.,
°C
wind,
m/s
gust,
m/s
humid.,
%
clouds,
%
prec.,
mm/h
press.,
hPa
HPBL,
m
12 may, wed
wed1201:00+28ne4681100 0.0 1007253
04:00+27se3478100 0.0 1007171
07:00+27e3475100 0.0 1009194
10:00+30e1369100 0.0 1010263
13:00+29nnw547211 0.0 1008582
16:00+29n667875 0.0 1007410
19:00+28nne698223 0.0 1008362
22:00+27nne798639 0.0 1010422
13 may, thu
thu1301:00+27ne688399 0.0 1008310
04:00+27ne338191 0.0 1007170
07:00+28se457795 0.0 1009241
10:00+30e026888 0.0 1010294
13:00+29nnw647648 0.0 1008577
16:00+29nne677412 0.0 1007488
19:00+27nne81084100 0.0 1008419
22:00+27nne8108764 0.0 1009479
14 may, fri
fri1401:00+28nne698667 0.0 1008425
04:00+27ene3484100 0.0 1007194
07:00+27e458152 0.4 1009234
10:00+30nne127196 0.0 1010319
13:00+29n537494 0.6 1009491
16:00+29nne7775100 0.0 1007491
19:00+27nne8985100 0.0 1008438
22:00+27nne898647 0.0 1010527
15 may, sat
sat1501:00+27nne898649 0.0 1009541
04:00+27ne348698 0.0 1008291
07:00+27ese348524 0.4 1010213
10:00+30nw027081 0.3 1011342
13:00+29n537531 0.9 1009561
16:00+29nne77767 0.3 1007520
19:00+27nne898411 0.4 1009443
22:00+27nne8984100 0.0 1010689
16 may, sun
sun1601:00+27nne8987100 0.2 1009600
04:00+27nne7887100 0.2 1008479
07:00+27ese568799 0.2 1010382
10:00+29se2473100 0.3 1011384
13:00+29sw5474100 2.7 1010536
16:00+28wnw227948 2.8 1009383
19:00+27ne1181100 4.8 1011302
22:00+27ne2282100 0.9 1012145